AFL740 URWA-UATG

Flight info

Callsign AFL740
Flight time 0h 32m
Altitude 250
Route ZG G487 OBATA L988 TUGLA
Aircraft A320/M-VGDW/C

Departure

Time 2026-05-08 16:20
Airport Astrakhan Narimanovo Boris M. Kustodiev International Airport (URWA)

Arrival

Time 2026-05-08 16:52
Airport Atyrau International Airport (UATG)
Time Latitude Longitude Altitude Speed Heading
2026-05-08 16:03 46.28578 47.99931 -91 ft 0 kts
2026-05-08 16:16 46.28590 47.99933 -93 ft 4 kts
2026-05-08 16:16 46.28623 47.99895 -94 ft 9 kts 295°
2026-05-08 16:17 46.28616 47.99782 -95 ft 13 kts 234°
2026-05-08 16:17 46.28585 47.99709 -93 ft 8 kts 244°
2026-05-08 16:17 46.28557 47.99623 -94 ft 7 kts 244°
2026-05-08 16:17 46.28522 47.99598 -97 ft 6 kts 188°
2026-05-08 16:18 46.28491 47.99591 -96 ft 0 kts 188°
2026-05-08 16:18 46.28490 47.99590 -96 ft 1 kts 188°
2026-05-08 16:18 46.28486 47.99590 -96 ft 0 kts 188°
2026-05-08 16:18 46.28484 47.99589 -95 ft 1 kts 188°
2026-05-08 16:19 46.28471 47.99586 -94 ft 5 kts 188°
2026-05-08 16:19 46.28424 47.99603 -96 ft 9 kts 140°
2026-05-08 16:19 46.28399 47.99753 -92 ft 34 kts 96°
2026-05-08 16:19 46.28339 48.00474 -89 ft 106 kts 97°
2026-05-08 16:20 46.28229 48.01811 -83 ft 159 kts 97°
2026-05-08 16:20 46.28105 48.03459 426 ft 166 kts 97°
2026-05-08 16:20 46.27982 48.05139 1045 ft 172 kts 96°
2026-05-08 16:20 46.27777 48.06902 1566 ft 183 kts 103°
2026-05-08 16:21 46.27459 48.08712 2212 ft 186 kts 103°
2026-05-08 16:21 46.27143 48.10520 2886 ft 185 kts 102°
2026-05-08 16:21 46.26830 48.12359 3416 ft 196 kts 101°
2026-05-08 16:21 46.26495 48.14378 3709 ft 218 kts 101°
2026-05-08 16:22 46.26126 48.16639 4009 ft 243 kts 101°
2026-05-08 16:22 46.25862 48.18265 4275 ft 260 kts 101°
2026-05-08 16:22 46.25281 48.21848 5081 ft 282 kts 99°
2026-05-08 16:22 46.24828 48.24620 6007 ft 285 kts 99°
2026-05-08 16:23 46.24369 48.27417 6950 ft 287 kts 99°
2026-05-08 16:23 46.23907 48.30235 7864 ft 289 kts 99°
2026-05-08 16:23 46.23449 48.33040 8761 ft 292 kts 99°
2026-05-08 16:23 46.22982 48.35902 9678 ft 294 kts 99°
2026-05-08 16:24 46.22504 48.38821 10302 ft 308 kts 99°
2026-05-08 16:24 46.21998 48.41943 10561 ft 332 kts 99°
2026-05-08 16:24 46.21635 48.44190 10745 ft 347 kts 99°
2026-05-08 16:24 46.21077 48.47589 11277 ft 357 kts 100°
2026-05-08 16:25 46.20496 48.51095 11993 ft 362 kts 100°
2026-05-08 16:25 46.19910 48.54652 12743 ft 365 kts 98°
2026-05-08 16:25 46.19619 48.58279 13482 ft 365 kts 87°
2026-05-08 16:25 46.19827 48.61914 14164 ft 364 kts 76°
2026-05-08 16:26 46.20524 48.65428 14820 ft 364 kts 65°
2026-05-08 16:26 46.21495 48.68807 15503 ft 366 kts 64°
2026-05-08 16:26 46.22475 48.72221 16144 ft 370 kts 65°
2026-05-08 16:26 46.23464 48.75680 16740 ft 374 kts 65°
2026-05-08 16:27 46.24447 48.79133 17342 ft 378 kts 65°
2026-05-08 16:27 46.25461 48.82714 17955 ft 382 kts 65°
2026-05-08 16:27 46.26458 48.86242 18502 ft 386 kts 65°
2026-05-08 16:27 46.27475 48.89847 19006 ft 389 kts 65°
2026-05-08 16:28 46.28504 48.93491 19515 ft 393 kts 65°
2026-05-08 16:28 46.29539 48.97162 20016 ft 396 kts 65°
2026-05-08 16:28 46.30583 49.00873 20527 ft 400 kts 66°
2026-05-08 16:28 46.31633 49.04618 21024 ft 403 kts 65°
2026-05-08 16:29 46.32688 49.08393 21516 ft 406 kts 65°
2026-05-08 16:29 46.33752 49.12200 21992 ft 410 kts 66°
2026-05-08 16:29 46.34824 49.16047 22459 ft 413 kts 66°
2026-05-08 16:29 46.35892 49.19873 22919 ft 416 kts 65°
2026-05-08 16:30 46.37031 49.23745 23368 ft 419 kts 64°
2026-05-08 16:30 46.38240 49.27601 23766 ft 422 kts 63°
2026-05-08 16:30 46.39490 49.31463 24146 ft 425 kts 63°
2026-05-08 16:30 46.40759 49.35347 24524 ft 427 kts 63°
2026-05-08 16:31 46.42028 49.39250 24858 ft 429 kts 63°
2026-05-08 16:31 46.43283 49.43172 24952 ft 432 kts 63°
2026-05-08 16:31 46.44543 49.47166 24967 ft 436 kts 63°
2026-05-08 16:31 46.45799 49.51186 24966 ft 438 kts 63°
2026-05-08 16:32 46.47050 49.55210 24970 ft 438 kts 63°
2026-05-08 16:32 46.48301 49.59244 24966 ft 438 kts 63°
2026-05-08 16:32 46.49552 49.63274 24967 ft 438 kts 63°
2026-05-08 16:32 46.50806 49.67310 24967 ft 438 kts 63°
2026-05-08 16:33 46.52060 49.71340 24977 ft 438 kts 63°
2026-05-08 16:33 46.53317 49.75374 24969 ft 439 kts 63°
2026-05-08 16:33 46.54575 49.79413 24968 ft 439 kts 63°
2026-05-08 16:33 46.55818 49.83407 24969 ft 439 kts 63°
2026-05-08 16:34 46.57076 49.87463 24971 ft 439 kts 63°
2026-05-08 16:34 46.58328 49.91517 24970 ft 439 kts 64°
2026-05-08 16:34 46.59574 49.95575 24969 ft 439 kts 64°
2026-05-08 16:34 46.60819 49.99633 24965 ft 439 kts 64°
2026-05-08 16:35 46.62062 50.03685 24964 ft 439 kts 64°
2026-05-08 16:35 46.63305 50.07743 24962 ft 439 kts 64°
2026-05-08 16:35 46.64550 50.11807 24962 ft 439 kts 64°
2026-05-08 16:35 46.65790 50.15854 24960 ft 439 kts 64°
2026-05-08 16:36 46.67016 50.19862 24960 ft 439 kts 64°
2026-05-08 16:36 46.68258 50.23924 24940 ft 439 kts 64°
2026-05-08 16:36 46.69495 50.27984 24545 ft 435 kts 64°
2026-05-08 16:36 46.70715 50.32007 23835 ft 433 kts 64°
2026-05-08 16:37 46.71925 50.36007 23110 ft 430 kts 64°
2026-05-08 16:37 46.73126 50.39988 22465 ft 425 kts 64°
2026-05-08 16:37 46.74308 50.43916 21825 ft 421 kts 63°
2026-05-08 16:37 46.75464 50.47760 21246 ft 415 kts 64°
2026-05-08 16:38 46.76618 50.51590 20667 ft 410 kts 63°
2026-05-08 16:38 46.77759 50.55380 20116 ft 405 kts 63°
2026-05-08 16:38 46.78884 50.59126 19581 ft 400 kts 63°
2026-05-08 16:38 46.79995 50.62828 19066 ft 396 kts 63°
2026-05-08 16:39 46.81091 50.66485 18574 ft 391 kts 63°
2026-05-08 16:39 46.82173 50.70105 18055 ft 387 kts 63°
2026-05-08 16:39 46.83242 50.73690 17547 ft 382 kts 63°
2026-05-08 16:39 46.84296 50.77230 17068 ft 378 kts 63°
2026-05-08 16:40 46.85339 50.80727 16564 ft 374 kts 62°
2026-05-08 16:40 46.86544 50.84052 16042 ft 368 kts 53°
2026-05-08 16:40 46.88082 50.87008 15525 ft 363 kts 48°
2026-05-08 16:40 46.89640 50.89836 15017 ft 361 kts 47°
2026-05-08 16:41 46.91227 50.92740 14477 ft 360 kts 48°
2026-05-08 16:41 46.92782 50.95603 13942 ft 359 kts 48°
2026-05-08 16:41 46.94332 50.98467 13347 ft 359 kts 48°
2026-05-08 16:42 46.97397 51.04135 12221 ft 354 kts 48°
2026-05-08 16:42 46.98918 51.06951 11653 ft 352 kts 48°
2026-05-08 16:42 47.00434 51.09754 11078 ft 350 kts 48°
2026-05-08 16:42 47.01935 51.12527 10695 ft 341 kts 48°
2026-05-08 16:43 47.03373 51.15192 10565 ft 326 kts 47°
2026-05-08 16:43 47.04748 51.17746 10446 ft 313 kts 47°
2026-05-08 16:43 47.06070 51.20201 10323 ft 300 kts 47°
2026-05-08 16:43 47.07340 51.22561 10200 ft 289 kts 47°
2026-05-08 16:44 47.08572 51.24847 9974 ft 283 kts 47°
2026-05-08 16:44 47.09781 51.27093 9844 ft 279 kts 47°
2026-05-08 16:44 47.10981 51.29325 9707 ft 279 kts 47°
2026-05-08 16:44 47.12171 51.31538 9283 ft 280 kts 47°
2026-05-08 16:45 47.13376 51.33787 8819 ft 281 kts 47°
2026-05-08 16:45 47.14589 51.36056 8408 ft 281 kts 47°
2026-05-08 16:45 47.15800 51.38318 7963 ft 281 kts 47°
2026-05-08 16:45 47.16983 51.40529 7639 ft 276 kts 47°
2026-05-08 16:46 47.18170 51.42748 7232 ft 276 kts 47°
2026-05-08 16:46 47.19351 51.44956 6772 ft 272 kts 47°
2026-05-08 16:46 47.20513 51.47136 6087 ft 271 kts 47°
2026-05-08 16:46 47.21670 51.49310 5477 ft 267 kts 48°
2026-05-08 16:47 47.22823 51.51476 4987 ft 269 kts 48°
2026-05-08 16:47 47.23970 51.53629 4511 ft 270 kts 48°
2026-05-08 16:47 47.25127 51.55796 4127 ft 267 kts 49°
2026-05-08 16:47 47.26138 51.58105 3705 ft 268 kts 56°
2026-05-08 16:48 47.27056 51.60461 3582 ft 264 kts 56°
2026-05-08 16:48 47.27972 51.62787 3512 ft 259 kts 56°
2026-05-08 16:48 47.28654 51.65172 3428 ft 249 kts 80°
2026-05-08 16:48 47.28367 51.67619 3309 ft 244 kts 118°
2026-05-08 16:49 47.27172 51.69354 3012 ft 243 kts 149°
2026-05-08 16:49 47.25719 51.70548 2714 ft 242 kts 153°
2026-05-08 16:49 47.24276 51.71727 2389 ft 232 kts 151°
2026-05-08 16:49 47.22904 51.72890 2075 ft 220 kts 151°
2026-05-08 16:50 47.21612 51.73995 1819 ft 208 kts 151°
2026-05-08 16:50 47.20399 51.75031 1529 ft 196 kts 150°
2026-05-08 16:50 47.19259 51.76004 1277 ft 186 kts 151°
2026-05-08 16:50 47.18169 51.76933 1033 ft 174 kts 151°
2026-05-08 16:51 47.17157 51.77796 803 ft 162 kts 151°
2026-05-08 16:51 47.16223 51.78594 612 ft 149 kts 150°
2026-05-08 16:51 47.15324 51.79357 383 ft 146 kts 153°
2026-05-08 16:51 47.14462 51.80091 232 ft 141 kts 152°
2026-05-08 16:52 47.13631 51.80796 63 ft 139 kts 152°
2026-05-08 16:52 47.12811 51.81497 -69 ft 128 kts 153°
2026-05-08 16:52 47.12233 51.81985 -87 ft 43 kts 149°
2026-05-08 16:52 47.11991 51.82191 -85 ft 30 kts 147°
2026-05-08 16:53 47.12003 51.82405 -84 ft 6 kts 59°
2026-05-08 16:53 47.12023 51.82455 -84 ft 5 kts 59°
2026-05-08 16:53 47.12039 51.82495 -82 ft 4 kts 60°
2026-05-08 16:54 47.12054 51.82534 -83 ft 6 kts 60°
2026-05-08 16:54 47.12087 51.82618 -83 ft 12 kts 60°
2026-05-08 16:54 47.12129 51.82730 -85 ft 13 kts 61°
2026-05-08 16:54 47.12168 51.82847 -83 ft 13 kts 55°
2026-05-08 16:55 47.12229 51.82838 -84 ft 0 kts 331°